Location: Il Ritiro
(43.4167°N, 13.1333°E)
Time: 07:31:21
(UTC+00:00)

Okean 3 Rocket - Pass Details

Date: 05 July 2020
Orbit: 614 x 645 km, 82.5° (Epoch: 05 August)

Event Time Altitude Azimuth Distance (km) Brightness Sun altitude
Exits shadow 22:47:02 58° 252° (WSW) 734 3.8 -23.7°
Maximum altitude 22:47:26 62° 280° (W) 714 3.8 -23.7°
Drops below altitude 10° 22:51:50 10° 2° (N) 2,008 7.3 -23.8°
Sets 22:54:06 0° 5° (N) 2,915 8.4 -23.8°
